Location: *
(46.4000°N, 12.6667°E)
Time: 07:06:07
(UTC+00:00)

N. Korean satellite - Visible Passes

Search period start: 02 December 2021 00:00
Search period end: 12 December 2021 00:00
Orbit: 447 x 495 km, 97.3° (Epoch: 01 December)

Date Brightness Start Highest point End Pass type
(mag) Time Alt. Az. Time Alt. Az. Time Alt. Az.
02 Dec 7.2 04:14:42 10° NNE 04:18:02 51° E 04:21:20 10° S visible
02 Dec 8.3 05:49:35 10° NW 05:50:48 12° WNW 05:52:00 10° W visible
02 Dec 9.5 16:25:01 10° SW 16:27:41 20° W 16:30:21 10° NW visible
03 Dec 8.9 03:46:40 10° NE 03:49:25 22° E 03:52:08 10° SSE visible
03 Dec 7.5 05:19:49 10° NNW 05:22:34 23° WNW 05:25:16 10° WSW visible
03 Dec 8.0 15:55:39 10° S 15:59:03 43° W 16:02:25 10° NNW visible
04 Dec 10.0 03:20:00 10° ENE 03:20:40 10° E 03:21:20 10° E visible
04 Dec 6.5 04:50:52 10° N 04:54:11 50° WNW 04:57:28 10° SSW visible
05 Dec 6.7 04:22:18 10° NNE 04:25:41 66° E 04:29:02 10° S visible
05 Dec 9.7 16:33:06 10° SW 16:35:22 16° W 16:37:39 10° NW visible
06 Dec 8.5 03:54:06 10° NE 03:57:04 27° E 04:00:00 10° SSE visible
06 Dec 7.8 05:27:38 10° NNW 05:30:06 19° WNW 05:32:33 10° WSW visible
06 Dec 8.5 16:03:27 10° SSW 16:06:41 34° W 16:09:54 10° NNW visible
07 Dec 9.7 03:26:41 10° ENE 03:28:19 13° E 03:29:57 10° ESE visible
07 Dec 6.8 04:58:31 10° N 05:01:44 40° WNW 05:04:54 10° SW visible
08 Dec 6.3 04:29:49 10° NNE 04:33:14 84° ESE 04:36:37 10° SSW visible
08 Dec 9.8 16:41:14 10° WSW 16:42:58 13° W 16:44:42 10° WNW visible
09 Dec 8.1 04:01:29 10° NNE 04:04:36 34° E 04:07:43 10° SSE visible
09 Dec 8.0 05:35:25 10° NNW 05:37:32 16° WNW 05:39:41 10° WSW visible
09 Dec 8.9 16:11:11 10° SSW 16:14:13 27° W 16:17:14 10° NW visible
10 Dec 9.4 03:35:24 15° E 03:35:52 16° E 03:38:01 10° SE visible
10 Dec 7.1 05:06:05 10° N 05:09:32 31° W 05:12:14 10° SW visible
11 Dec 6.8 04:37:16 10° N 04:41:29 48° SSW 04:44:03 10° SSW visible
11 Dec 10.1 16:49:42 10° WSW 16:50:29 11° W 16:51:16 10° WNW visible
